WON1941 WATC-WAAA

Flight info

Callsign WON1941
Flight time 1h 14m
Altitude 14000
Route RURSU W35 NETTO
Aircraft AT76/M-SDFGIRY/S

Departure

Time 2026-05-05 07:54
Airport Frans Xavier Seda Airport (WATC)

Arrival

Time 2026-05-05 09:08
Airport Sultan Hasanuddin International Airport (WAAA)
Time Latitude Longitude Altitude Speed Heading
2026-05-05 06:58 -8.63745 122.23822 29 ft 0 kts 320°
2026-05-05 07:45 -8.63737 122.23815 31 ft 3 kts 321°
2026-05-05 07:45 -8.63727 122.23800 31 ft 2 kts 271°
2026-05-05 07:45 -8.63732 122.23788 32 ft 2 kts 239°
2026-05-05 07:45 -8.63739 122.23779 33 ft 1 kts 233°
2026-05-05 07:46 -8.63749 122.23766 33 ft 3 kts 234°
2026-05-05 07:46 -8.63764 122.23749 34 ft 1 kts 207°
2026-05-05 07:46 -8.63767 122.23753 33 ft 2 kts 147°
2026-05-05 07:46 -8.63801 122.23796 28 ft 11 kts 133°
2026-05-05 07:47 -8.63865 122.23839 26 ft 10 kts 155°
2026-05-05 07:47 -8.63918 122.23848 26 ft 5 kts 207°
2026-05-05 07:47 -8.63946 122.23818 27 ft 7 kts 231°
2026-05-05 07:47 -8.63982 122.23773 28 ft 9 kts 230°
2026-05-05 07:48 -8.64027 122.23719 28 ft 11 kts 231°
2026-05-05 07:48 -8.64104 122.23625 26 ft 24 kts 232°
2026-05-05 07:48 -8.64196 122.23512 26 ft 18 kts 230°
2026-05-05 07:48 -8.64315 122.23366 22 ft 36 kts 230°
2026-05-05 07:49 -8.64474 122.23172 24 ft 35 kts 230°
2026-05-05 07:49 -8.64556 122.23051 24 ft 12 kts 246°
2026-05-05 07:49 -8.64582 122.23034 24 ft 1 kts 149°
2026-05-05 07:49 -8.64583 122.23045 24 ft 1 kts 66°
2026-05-05 07:50 -8.64568 122.23058 24 ft 1 kts 50°
2026-05-05 07:53 -8.64524 122.23117 23 ft 36 kts 56°
2026-05-05 07:53 -8.64232 122.23468 25 ft 92 kts 51°
2026-05-05 07:53 -8.63713 122.24093 59 ft 134 kts 51°
2026-05-05 07:53 -8.63094 122.24815 513 ft 137 kts 52°
2026-05-05 07:54 -8.62308 122.25334 954 ft 145 kts
2026-05-05 07:54 -8.61419 122.24912 1354 ft 145 kts 307°
2026-05-05 07:54 -8.60819 122.24078 1670 ft 151 kts 302°
2026-05-05 07:54 -8.60239 122.23167 1862 ft 166 kts 299°
2026-05-05 07:55 -8.59640 122.22132 2118 ft 172 kts 298°
2026-05-05 07:55 -8.58962 122.21074 2230 ft 189 kts 308°
2026-05-05 07:55 -8.57982 122.20133 2455 ft 195 kts 320°
2026-05-05 07:55 -8.56999 122.19234 2849 ft 191 kts 319°
2026-05-05 07:56 -8.55915 122.18436 3160 ft 193 kts 327°
2026-05-05 07:56 -8.54801 122.17675 3547 ft 193 kts 322°
2026-05-05 07:56 -8.54075 122.16562 3862 ft 190 kts 290°
2026-05-05 07:56 -8.53290 122.15497 4112 ft 193 kts 326°
2026-05-05 07:57 -8.52161 122.14749 4489 ft 195 kts 327°
2026-05-05 07:57 -8.51030 122.13987 4856 ft 196 kts 325°
2026-05-05 07:57 -8.49940 122.13156 5213 ft 197 kts 322°
2026-05-05 07:57 -8.48905 122.12277 5578 ft 198 kts 309°
2026-05-05 07:58 -8.48483 122.10987 5920 ft 196 kts 268°
2026-05-05 07:58 -8.48315 122.09634 6121 ft 200 kts 298°
2026-05-05 07:58 -8.47288 122.08726 6429 ft 199 kts 342°
2026-05-05 07:58 -8.45987 122.08282 6808 ft 197 kts 342°
2026-05-05 07:59 -8.44701 122.07790 7157 ft 198 kts 339°
2026-05-05 07:59 -8.43447 122.07205 7509 ft 199 kts 334°
2026-05-05 07:59 -8.42242 122.06513 7852 ft 200 kts 329°
2026-05-05 07:59 -8.41082 122.05730 8184 ft 201 kts 326°
2026-05-05 08:00 -8.39947 122.04900 8531 ft 202 kts 325°
2026-05-05 08:00 -8.38814 122.04062 8879 ft 202 kts 325°
2026-05-05 08:00 -8.37683 122.03215 9215 ft 203 kts 325°
2026-05-05 08:00 -8.36537 122.02374 9559 ft 203 kts 326°
2026-05-05 08:01 -8.35382 122.01542 9885 ft 204 kts 326°
2026-05-05 08:01 -8.34239 122.00718 10170 ft 205 kts 326°
2026-05-05 08:01 -8.33070 121.99881 10457 ft 206 kts 326°
2026-05-05 08:01 -8.31899 121.99041 10749 ft 207 kts 326°
2026-05-05 08:02 -8.30722 121.98196 11039 ft 208 kts 326°
2026-05-05 08:02 -8.29537 121.97347 11326 ft 209 kts 326°
2026-05-05 08:02 -8.28349 121.96497 11612 ft 210 kts 325°
2026-05-05 08:02 -8.27156 121.95644 11893 ft 211 kts 325°
2026-05-05 08:03 -8.25958 121.94784 12190 ft 211 kts 325°
2026-05-05 08:03 -8.24770 121.93929 12469 ft 212 kts 325°
2026-05-05 08:03 -8.23563 121.93060 12756 ft 213 kts 324°
2026-05-05 08:03 -8.22361 121.92180 13038 ft 214 kts 323°
2026-05-05 08:04 -8.21164 121.91278 13315 ft 215 kts 323°
2026-05-05 08:04 -8.19969 121.90370 13592 ft 216 kts 323°
2026-05-05 08:04 -8.18768 121.89454 13834 ft 216 kts 323°
2026-05-05 08:04 -8.17565 121.88536 14066 ft 217 kts 323°
2026-05-05 08:05 -8.16345 121.87609 14211 ft 223 kts 323°
2026-05-05 08:05 -8.15080 121.86647 14275 ft 232 kts 323°
2026-05-05 08:05 -8.13762 121.85640 14315 ft 242 kts 323°
2026-05-05 08:05 -8.12393 121.84596 14332 ft 251 kts 323°
2026-05-05 08:06 -8.10996 121.83531 14338 ft 258 kts 323°
2026-05-05 08:06 -8.09544 121.82425 14340 ft 265 kts 323°
2026-05-05 08:06 -8.08063 121.81295 14342 ft 270 kts 323°
2026-05-05 08:06 -8.06550 121.80142 14341 ft 274 kts 323°
2026-05-05 08:07 -8.05024 121.78978 14342 ft 277 kts 323°
2026-05-05 08:07 -8.03479 121.77800 14342 ft 279 kts 323°
2026-05-05 08:07 -8.01919 121.76614 14344 ft 281 kts 323°
2026-05-05 08:07 -8.00353 121.75421 14343 ft 283 kts 323°
2026-05-05 08:08 -7.98775 121.74220 14343 ft 284 kts 323°
2026-05-05 08:08 -7.97199 121.73020 14341 ft 285 kts 323°
2026-05-05 08:08 -7.95611 121.71807 14342 ft 285 kts 323°
2026-05-05 08:08 -7.94024 121.70598 14340 ft 286 kts 323°
2026-05-05 08:09 -7.92455 121.69404 14344 ft 286 kts 323°
2026-05-05 08:09 -7.90858 121.68190 14342 ft 287 kts 323°
2026-05-05 08:09 -7.89269 121.66978 14343 ft 287 kts 323°
2026-05-05 08:09 -7.87671 121.65761 14343 ft 287 kts 323°
2026-05-05 08:10 -7.86077 121.64550 14344 ft 287 kts 323°
2026-05-05 08:10 -7.84481 121.63334 14345 ft 287 kts 323°
2026-05-05 08:10 -7.82885 121.62119 14343 ft 287 kts 323°
2026-05-05 08:10 -7.81289 121.60907 14341 ft 287 kts 323°
2026-05-05 08:11 -7.79692 121.59693 14343 ft 287 kts 323°
2026-05-05 08:11 -7.78096 121.58477 14343 ft 287 kts 323°
2026-05-05 08:11 -7.76500 121.57261 14342 ft 287 kts 323°
2026-05-05 08:11 -7.74903 121.56049 14342 ft 287 kts 323°
2026-05-05 08:12 -7.73304 121.54833 14343 ft 287 kts 323°
2026-05-05 08:12 -7.71728 121.53635 14342 ft 287 kts 323°
2026-05-05 08:12 -7.70131 121.52420 14343 ft 288 kts 323°
2026-05-05 08:12 -7.68534 121.51206 14342 ft 287 kts 323°
2026-05-05 08:13 -7.66936 121.49990 14342 ft 287 kts 323°
2026-05-05 08:13 -7.65339 121.48776 14342 ft 287 kts 323°
2026-05-05 08:13 -7.63739 121.47562 14343 ft 287 kts 323°
2026-05-05 08:13 -7.62137 121.46344 14343 ft 287 kts 323°
2026-05-05 08:14 -7.60539 121.45130 14342 ft 287 kts 323°
2026-05-05 08:14 -7.59482 121.44328 14344 ft 287 kts 323°
2026-05-05 08:14 -7.57887 121.43114 14343 ft 287 kts 323°
2026-05-05 08:14 -7.55765 121.41503 14343 ft 287 kts 323°
2026-05-05 08:15 -7.54684 121.40682 14343 ft 287 kts 323°
2026-05-05 08:15 -7.53107 121.39484 14343 ft 287 kts 323°
2026-05-05 08:15 -7.51510 121.38272 14345 ft 287 kts 323°
2026-05-05 08:15 -7.49916 121.37058 14343 ft 287 kts 323°
2026-05-05 08:16 -7.48316 121.35843 14343 ft 287 kts 323°
2026-05-05 08:16 -7.46716 121.34631 14344 ft 287 kts 323°
2026-05-05 08:16 -7.45116 121.33417 14343 ft 287 kts 323°
2026-05-05 08:16 -7.43520 121.32204 14345 ft 287 kts 323°
2026-05-05 08:17 -7.41923 121.30992 14343 ft 287 kts 323°
2026-05-05 08:17 -7.40326 121.29779 14342 ft 287 kts 323°
2026-05-05 08:17 -7.38729 121.28567 14343 ft 287 kts 323°
2026-05-05 08:17 -7.37130 121.27355 14343 ft 287 kts 323°
2026-05-05 08:18 -7.35533 121.26141 14345 ft 287 kts 323°
2026-05-05 08:18 -7.33934 121.24930 14343 ft 287 kts 323°
2026-05-05 08:18 -7.32357 121.23731 14344 ft 287 kts 323°
2026-05-05 08:18 -7.30762 121.22522 14342 ft 287 kts 323°
2026-05-05 08:19 -7.29161 121.21309 14342 ft 287 kts 323°
2026-05-05 08:19 -7.27561 121.20096 14343 ft 288 kts 323°
2026-05-05 08:19 -7.25963 121.18882 14343 ft 288 kts 323°
2026-05-05 08:19 -7.24366 121.17671 14344 ft 288 kts 323°
2026-05-05 08:20 -7.22762 121.16457 14344 ft 288 kts 323°
2026-05-05 08:20 -7.21163 121.15244 14346 ft 288 kts 323°
2026-05-05 08:20 -7.19566 121.14033 14346 ft 288 kts 323°
2026-05-05 08:20 -7.17964 121.12819 14342 ft 288 kts 323°
2026-05-05 08:21 -7.16365 121.11608 14343 ft 288 kts 323°
2026-05-05 08:21 -7.14767 121.10393 14341 ft 288 kts 323°
2026-05-05 08:21 -7.13167 121.09182 14342 ft 288 kts 323°
2026-05-05 08:21 -7.11564 121.07968 14341 ft 288 kts 323°
2026-05-05 08:22 -7.09984 121.06770 14342 ft 288 kts 323°
2026-05-05 08:22 -7.08385 121.05560 14343 ft 288 kts 323°
2026-05-05 08:22 -7.06780 121.04342 14342 ft 288 kts 323°
2026-05-05 08:22 -7.05178 121.03134 14343 ft 287 kts 324°
2026-05-05 08:23 -7.03438 121.02166 14343 ft 287 kts 338°
2026-05-05 08:23 -7.01561 121.01478 14344 ft 287 kts 341°
2026-05-05 08:23 -6.99666 121.00835 14342 ft 288 kts 341°
2026-05-05 08:23 -6.97781 121.00158 14342 ft 288 kts 340°
2026-05-05 08:24 -6.95912 120.99430 14344 ft 288 kts 339°
2026-05-05 08:24 -6.94047 120.98696 14344 ft 288 kts 339°
2026-05-05 08:24 -6.92179 120.97967 14342 ft 288 kts 339°
2026-05-05 08:24 -6.90314 120.97240 14342 ft 288 kts 339°
2026-05-05 08:25 -6.88449 120.96512 14341 ft 288 kts 339°
2026-05-05 08:25 -6.86604 120.95793 14343 ft 288 kts 339°
2026-05-05 08:25 -6.84738 120.95065 14345 ft 288 kts 339°
2026-05-05 08:25 -6.82872 120.94338 14341 ft 288 kts 339°
2026-05-05 08:26 -6.81002 120.93609 14342 ft 288 kts 339°
2026-05-05 08:26 -6.79139 120.92881 14345 ft 288 kts 339°
2026-05-05 08:26 -6.77273 120.92154 14341 ft 288 kts 339°
2026-05-05 08:26 -6.75405 120.91427 14343 ft 288 kts 339°
2026-05-05 08:27 -6.73541 120.90699 14342 ft 288 kts 339°
2026-05-05 08:27 -6.71673 120.89971 14342 ft 288 kts 339°
2026-05-05 08:27 -6.69803 120.89242 14343 ft 288 kts 339°
2026-05-05 08:27 -6.67961 120.88525 14343 ft 288 kts 339°
2026-05-05 08:28 -6.66096 120.87799 14342 ft 288 kts 339°
2026-05-05 08:28 -6.64228 120.87070 14342 ft 288 kts 339°
2026-05-05 08:28 -6.62359 120.86342 14344 ft 288 kts 339°
2026-05-05 08:28 -6.60492 120.85614 14341 ft 288 kts 339°
2026-05-05 08:29 -6.58620 120.84886 14346 ft 288 kts 339°
2026-05-05 08:29 -6.56751 120.84158 14342 ft 288 kts 339°
2026-05-05 08:29 -6.54883 120.83429 14340 ft 288 kts 339°
2026-05-05 08:30 -6.51145 120.81976 14345 ft 288 kts 339°
2026-05-05 08:30 -6.49279 120.81248 14345 ft 288 kts 340°
2026-05-05 08:30 -6.47431 120.80528 14347 ft 288 kts 339°
2026-05-05 08:30 -6.45558 120.79799 14346 ft 288 kts 339°
2026-05-05 08:31 -6.43685 120.79070 14345 ft 288 kts 340°
2026-05-05 08:31 -6.41811 120.78342 14345 ft 288 kts 339°
2026-05-05 08:31 -6.39943 120.77614 14346 ft 288 kts 340°
2026-05-05 08:31 -6.38070 120.76885 14345 ft 288 kts 340°
2026-05-05 08:32 -6.36201 120.76157 14344 ft 288 kts 340°
2026-05-05 08:32 -6.34334 120.75430 14345 ft 288 kts 340°
2026-05-05 08:32 -6.32463 120.74702 14344 ft 288 kts 340°
2026-05-05 08:32 -6.30621 120.73982 14346 ft 288 kts 340°
2026-05-05 08:33 -6.28747 120.73252 14344 ft 288 kts 340°
2026-05-05 08:33 -6.26877 120.72522 14347 ft 288 kts 340°
2026-05-05 08:33 -6.25001 120.71791 14346 ft 288 kts 340°
2026-05-05 08:33 -6.23132 120.71059 14346 ft 289 kts 340°
2026-05-05 08:34 -6.21262 120.70323 14346 ft 289 kts 340°
2026-05-05 08:34 -6.19392 120.69585 14345 ft 289 kts 340°
2026-05-05 08:34 -6.17518 120.68845 14347 ft 289 kts 340°
2026-05-05 08:34 -6.15647 120.68111 14347 ft 289 kts 340°
2026-05-05 08:35 -6.13773 120.67380 14343 ft 289 kts 340°
2026-05-05 08:35 -6.11898 120.66651 14347 ft 289 kts 340°
2026-05-05 08:35 -6.10024 120.65924 14347 ft 289 kts 340°
2026-05-05 08:35 -6.08152 120.65196 14347 ft 289 kts 340°
2026-05-05 08:36 -6.06300 120.64477 14349 ft 289 kts 340°
2026-05-05 08:36 -6.04421 120.63754 14350 ft 289 kts 340°
2026-05-05 08:36 -6.02541 120.63035 14350 ft 289 kts 341°
2026-05-05 08:36 -6.00657 120.62314 14345 ft 290 kts 340°
2026-05-05 08:37 -5.98770 120.61592 14343 ft 290 kts 340°
2026-05-05 08:37 -5.96890 120.60869 14345 ft 290 kts 340°
2026-05-05 08:37 -5.95008 120.60138 14344 ft 290 kts 340°
2026-05-05 08:37 -5.93127 120.59401 14342 ft 290 kts 340°
2026-05-05 08:38 -5.91243 120.58663 14344 ft 290 kts 340°
2026-05-05 08:38 -5.89361 120.57927 14342 ft 291 kts 340°
2026-05-05 08:38 -5.87473 120.57189 14343 ft 291 kts 340°
2026-05-05 08:38 -5.85587 120.56449 14343 ft 291 kts 340°
2026-05-05 08:39 -5.83700 120.55712 14342 ft 291 kts 340°
2026-05-05 08:39 -5.81813 120.54973 14344 ft 291 kts 340°
2026-05-05 08:39 -5.79925 120.54236 14344 ft 291 kts 340°
2026-05-05 08:39 -5.78060 120.53507 14343 ft 291 kts 340°
2026-05-05 08:40 -5.76145 120.52760 14340 ft 291 kts 340°
2026-05-05 08:40 -5.74255 120.52030 14342 ft 291 kts 340°
2026-05-05 08:40 -5.72388 120.51311 14342 ft 291 kts 340°
2026-05-05 08:40 -5.70496 120.50581 14343 ft 291 kts 340°
2026-05-05 08:41 -5.68602 120.49854 14347 ft 291 kts 340°
2026-05-05 08:41 -5.66734 120.49141 14344 ft 283 kts 341°
2026-05-05 08:41 -5.64908 120.48446 14341 ft 276 kts 341°
2026-05-05 08:41 -5.63127 120.47761 14343 ft 271 kts 341°
2026-05-05 08:42 -5.61379 120.47085 14344 ft 267 kts 341°
2026-05-05 08:42 -5.59661 120.46419 14344 ft 263 kts 340°
2026-05-05 08:42 -5.57961 120.45754 14349 ft 261 kts 340°
2026-05-05 08:42 -5.56272 120.45090 14346 ft 259 kts 340°
2026-05-05 08:43 -5.54631 120.44419 14344 ft 257 kts 335°
2026-05-05 08:43 -5.53156 120.43379 14351 ft 256 kts 321°
2026-05-05 08:43 -5.51832 120.42225 14347 ft 255 kts 320°
2026-05-05 08:43 -5.50502 120.41047 14346 ft 255 kts 320°
2026-05-05 08:44 -5.49149 120.39901 14350 ft 254 kts 322°
2026-05-05 08:44 -5.47770 120.38790 14349 ft 254 kts 323°
2026-05-05 08:44 -5.46386 120.37688 14348 ft 254 kts 323°
2026-05-05 08:44 -5.45004 120.36586 14347 ft 254 kts 323°
2026-05-05 08:45 -5.43622 120.35484 14355 ft 254 kts 323°
2026-05-05 08:45 -5.42234 120.34384 14352 ft 254 kts 323°
2026-05-05 08:45 -5.40845 120.33276 14350 ft 254 kts 322°
2026-05-05 08:45 -5.39460 120.32166 14351 ft 254 kts 323°
2026-05-05 08:46 -5.38077 120.31056 14350 ft 254 kts 322°
2026-05-05 08:46 -5.36699 120.29948 14353 ft 254 kts 322°
2026-05-05 08:46 -5.35319 120.28838 14358 ft 254 kts 322°
2026-05-05 08:46 -5.33939 120.27729 14356 ft 255 kts 322°
2026-05-05 08:47 -5.32554 120.26619 14360 ft 255 kts 322°
2026-05-05 08:47 -5.31165 120.25504 14353 ft 257 kts 322°
2026-05-05 08:47 -5.29784 120.24396 14360 ft 257 kts 323°
2026-05-05 08:47 -5.28390 120.23277 14359 ft 257 kts 323°
2026-05-05 08:48 -5.26994 120.22158 14358 ft 256 kts 322°
2026-05-05 08:48 -5.25601 120.21041 14358 ft 256 kts 322°
2026-05-05 08:48 -5.24212 120.19927 14361 ft 256 kts 322°
2026-05-05 08:48 -5.22818 120.18812 14360 ft 256 kts 322°
2026-05-05 08:49 -5.21429 120.17696 14363 ft 256 kts 322°
2026-05-05 08:49 -5.20037 120.16576 14363 ft 255 kts 322°
2026-05-05 08:49 -5.18651 120.15463 14361 ft 255 kts 322°
2026-05-05 08:49 -5.17264 120.14349 14363 ft 255 kts 322°
2026-05-05 08:50 -5.15884 120.13242 14372 ft 255 kts 322°
2026-05-05 08:50 -5.14497 120.12132 14368 ft 255 kts 322°
2026-05-05 08:50 -5.13110 120.11018 14362 ft 255 kts 322°
2026-05-05 08:50 -5.11725 120.09907 14369 ft 255 kts 322°
2026-05-05 08:51 -5.10359 120.08812 14358 ft 254 kts 322°
2026-05-05 08:51 -5.08977 120.07706 14364 ft 254 kts 322°
2026-05-05 08:51 -5.07598 120.06602 14372 ft 254 kts 322°
2026-05-05 08:51 -5.06220 120.05495 14369 ft 254 kts 322°
2026-05-05 08:52 -5.04839 120.04387 14370 ft 254 kts 322°
2026-05-05 08:52 -5.03459 120.03280 14373 ft 254 kts 322°
2026-05-05 08:52 -5.02072 120.02170 14368 ft 255 kts 322°
2026-05-05 08:52 -5.00686 120.01057 14370 ft 256 kts 322°
2026-05-05 08:53 -4.99288 119.99934 14361 ft 259 kts 322°
2026-05-05 08:53 -4.97875 119.98807 14359 ft 260 kts 322°
2026-05-05 08:53 -4.96454 119.97669 14362 ft 261 kts 322°
2026-05-05 08:53 -4.95030 119.96532 14359 ft 262 kts 323°
2026-05-05 08:54 -4.93603 119.95421 14362 ft 262 kts 323°
2026-05-05 08:54 -4.92157 119.94302 14361 ft 263 kts 323°
2026-05-05 08:54 -4.90703 119.93183 14348 ft 263 kts 323°
2026-05-05 08:54 -4.89256 119.92062 14359 ft 263 kts 323°
2026-05-05 08:55 -4.87806 119.90942 14358 ft 262 kts 323°
2026-05-05 08:55 -4.86364 119.89827 14359 ft 262 kts 323°
2026-05-05 08:55 -4.84918 119.88708 14359 ft 262 kts 323°
2026-05-05 08:55 -4.83464 119.87584 14196 ft 270 kts 323°
2026-05-05 08:56 -4.81937 119.86406 13859 ft 282 kts 323°
2026-05-05 08:56 -4.80353 119.85181 13497 ft 292 kts 323°
2026-05-05 08:56 -4.78742 119.83939 13102 ft 292 kts 323°
2026-05-05 08:56 -4.77126 119.82698 12704 ft 293 kts 323°
2026-05-05 08:57 -4.75508 119.81460 12305 ft 293 kts 324°
2026-05-05 08:57 -4.73909 119.80235 11907 ft 293 kts 323°
2026-05-05 08:57 -4.72296 119.78993 11520 ft 292 kts 323°
2026-05-05 08:57 -4.70692 119.77754 11144 ft 289 kts 323°
2026-05-05 08:58 -4.69111 119.76532 10767 ft 285 kts 323°
2026-05-05 08:58 -4.67552 119.75322 10403 ft 281 kts 323°
2026-05-05 08:58 -4.66113 119.74027 10031 ft 277 kts 307°
2026-05-05 08:58 -4.65413 119.72242 9664 ft 277 kts 276°
2026-05-05 08:59 -4.65693 119.70355 9269 ft 275 kts 245°
2026-05-05 08:59 -4.66845 119.68874 8881 ft 267 kts 218°
2026-05-05 08:59 -4.68289 119.67727 8533 ft 264 kts 218°
2026-05-05 08:59 -4.69636 119.66512 8170 ft 264 kts 223°
2026-05-05 09:00 -4.70876 119.65153 7811 ft 263 kts 228°
2026-05-05 09:00 -4.72276 119.64029 7440 ft 257 kts 201°
2026-05-05 09:00 -4.73983 119.63579 7102 ft 253 kts 186°
2026-05-05 09:00 -4.75734 119.63473 6759 ft 252 kts 176°
2026-05-05 09:01 -4.77471 119.63642 6410 ft 249 kts 169°
2026-05-05 09:01 -4.79181 119.63923 6071 ft 248 kts 168°
2026-05-05 09:01 -4.80887 119.64210 5720 ft 248 kts 168°
2026-05-05 09:01 -4.82570 119.64482 5387 ft 248 kts 169°
2026-05-05 09:02 -4.84281 119.64723 5039 ft 249 kts 170°
2026-05-05 09:02 -4.85998 119.64959 4746 ft 249 kts 170°
2026-05-05 09:02 -4.87707 119.65194 4402 ft 246 kts 171°
2026-05-05 09:02 -4.89393 119.65421 4021 ft 244 kts 170°
2026-05-05 09:03 -4.91061 119.65504 3614 ft 240 kts 188°
2026-05-05 09:03 -4.92067 119.65100 3361 ft 228 kts 210°
2026-05-05 09:03 -4.93318 119.64250 3062 ft 209 kts 214°
2026-05-05 09:03 -4.94464 119.63435 2785 ft 195 kts 215°
2026-05-05 09:04 -4.95870 119.62420 2464 ft 181 kts 216°
2026-05-05 09:04 -4.96848 119.61705 2259 ft 168 kts 216°
2026-05-05 09:04 -4.97484 119.61243 2107 ft 166 kts 216°
2026-05-05 09:04 -4.98422 119.60615 1899 ft 157 kts 210°
2026-05-05 09:05 -4.99346 119.60105 1703 ft 150 kts 209°
2026-05-05 09:05 -5.00226 119.59620 1525 ft 136 kts 210°
2026-05-05 09:05 -5.00999 119.59172 1357 ft 121 kts 211°
2026-05-05 09:05 -5.01697 119.58759 1217 ft 112 kts 212°
2026-05-05 09:06 -5.02347 119.58379 1085 ft 106 kts 211°
2026-05-05 09:06 -5.03003 119.57998 942 ft 110 kts 210°
2026-05-05 09:06 -5.03658 119.57609 798 ft 112 kts 209°
2026-05-05 09:06 -5.04327 119.57212 648 ft 111 kts 207°
2026-05-05 09:07 -5.04992 119.56827 498 ft 111 kts 206°
2026-05-05 09:07 -5.05687 119.56444 347 ft 117 kts 205°
2026-05-05 09:07 -5.06385 119.56055 172 ft 114 kts 203°
2026-05-05 09:07 -5.07071 119.55649 40 ft 110 kts 204°
2026-05-05 09:08 -5.07569 119.55360 38 ft 40 kts 209°
2026-05-05 09:08 -5.07708 119.55268 38 ft 12 kts 242°
2026-05-05 09:08 -5.07682 119.55194 38 ft 14 kts 300°
2026-05-05 09:08 -5.07633 119.55107 38 ft 15 kts 301°
2026-05-05 09:09 -5.07579 119.55010 38 ft 15 kts 289°
2026-05-05 09:09 -5.07627 119.54952 38 ft 5 kts 169°
2026-05-05 09:09 -5.07635 119.54962 38 ft 2 kts 124°
2026-05-05 09:09 -5.07640 119.54972 38 ft 2 kts 116°
2026-05-05 09:10 -5.07648 119.54987 38 ft 3 kts 120°
2026-05-05 09:10 -5.07660 119.55006 38 ft 3 kts 120°
2026-05-05 09:10 -5.07665 119.55015 38 ft 0 kts 119°